Wind_Speed
7 7 7 6 7 7 7 7 7 7 7 7 7 6 6 5 5 5 5 5 5 4 5 5 5 5 5 5 4 4 4 4 5 4 4 4 4 4 3 3 4 4 3
7 7 7 7 7 7 7 7 7 7 7 6 6 6 5 5 4 4 5 4 4 5 5 6 5 5 5 5 5 4 5 5 4 4 4 4 4 4 3 3 3 2 3
8 8 8 8 8 7 7 7 7 6 6 6 6 6 5 5 5 4 4 4 5 5 5 5 5 5 5 5 5 4 4 4 4 4 4 3 3 4 3 3 2 2 2
9 9 9 9 8 8 7 7 6 6 6 7 7 6 6 5 5 5 5 5 5 5 5 4 4 4 4 5 5 5 5 4 4 4 4 3 3 3 2 2 1 1 1
10 10 10 9 8 8 7 7 7 7 7 7 6 6 5 5 5 5 5 5 4 4 4 4 4 4 4 5 5 4 4 4 3 3 3 3 2 2 2 1 1 0 0
10 10 9 9 9 9 8 8 8 8 8 7 6 5 5 5 5 5 5 4 3 3 3 3 3 3 4 4 5 4 4 4 4 3 3 2 2 2 1 1 1 1 1
9 9 9 9 8 8 8 8 8 8 7 7 6 5 5 5 5 4 4 4 4 4 3 3 3 3 3 4 4 4 3 3 3 3 2 2 2 1 1 1 2 1 1
8 8 8 8 7 8 9 8 8 8 7 6 6 5 5 5 5 4 4 4 4 4 3 3 3 3 3 3 3 3 4 3 3 3 3 3 2 2 1 1 2 1 1
7 7 8 7 7 7 7 8 8 8 7 6 5 5 5 5 5 4 4 4 3 4 4 4 3 3 3 3 3 3 4 4 3 3 3 3 2 1 1 1 1 0 1
7 7 7 7 7 7 7 8 7 7 6 5 5 5 5 5 4 4 4 4 3 3 3 4 4 3 3 3 3 3 4 3 2 2 2 2 2 1 1 0 1 1 1
7 7 7 7 6 6 6 7 6 6 5 4 4 4 5 4 4 4 4 4 4 4 4 4 4 4 3 3 3 4 4 4 3 3 3 2 2 1 1 2 2 2 2
7 7 6 7 6 6 6 5 5 4 5 4 4 4 4 4 4 4 4 4 4 4 4 3 4 3 4 3 4 5 5 4 3 3 3 2 2 2 2 2 2 2 2
7 6 6 6 6 7 6 5 5 5 4 4 4 3 3 3 3 3 3 3 3 3 3 4 4 4 4 4 4 4 4 4 3 3 3 3 3 3 2 3 3 2 3
7 6 6 7 6 6 5 5 5 4 4 4 3 3 3 2 2 2 2 2 2 3 3 3 4 4 3 3 4 4 4 3 4 4 3 4 4 4 4 4 4 4 5
8 7 7 7 6 5 5 5 5 5 5 5 4 3 3 3 3 2 2 2 2 2 3 3 4 4 4 4 4 4 4 4 4 4 4 5 5 5 5 5 5 5 6
10 9 8 7 6 5 5 5 5 4 4 3 3 2 2 2 2 2 2 1 2 2 3 4 4 5 5 5 4 4 4 4 5 5 5 5 6 6 6 6 6 7 7
10 10 9 8 6 5 5 5 5 4 3 3 3 2 2 2 2 2 2 2 2 3 4 4 4 5 5 5 5 5 5 5 6 6 6 6 7 7 7 7 7 8 8
9 9 9 8 7 6 6 5 5 5 5 4 4 3 2 2 2 2 2 2 2 3 4 4 5 5 6 6 6 6 7 7 7 7 7 8 8 8 8 9 9 9 9
8 8 8 7 7 6 6 6 6 5 5 4 3 2 2 2 2 2 1 2 3 3 4 4 5 6 6 6 7 7 8 8 8 8 8 9 9 9 9 9 10 10 9
7 7 7 7 7 6 6 6 5 5 5 4 3 3 3 2 2 2 2 3 3 3 4 4 5 6 6 6 7 8 9 9 8 9 9 10 10 10 11 11 11 10 11
7 7 7 7 6 6 5 5 5 5 5 4 3 3 3 3 3 3 3 4 4 4 4 5 6 7 7 7 8 9 9 9 9 11 10 10 11 11 12 12 12 12 12
7 7 6 6 6 6 6 5 5 5 4 4 4 4 3 3 3 3 4 5 5 5 5 6 6 7 8 9 9 9 9 9 10 10 10 11 11 11 11 12 12 12 12
6 5 6 6 6 6 6 5 5 5 4 4 3 3 3 3 3 4 5 5 6 6 6 7 7 9 9 10 10 10 10 10 10 11 11 11 11 12 12 12 12 12 12
5 4 5 5 6 6 5 6 5 5 4 4 4 4 4 4 4 5 6 6 7 7 7 8 9 10 10 11 12 12 11 10 10 10 11 12 11 12 12 12 12 12 12
5 5 5 5 5 5 6 5 5 4 4 4 4 4 4 5 5 6 7 7 8 8 8 9 10 11 11 12 13 13 12 12 11 11 11 11 12 12 13 13 13 13 13
5 5 5 5 5 5 5 5 5 4 4 4 4 5 5 6 7 7 8 9 9 10 11 11 12 12 13 13 13 12 13 12 11 12 12 12 12 13 14 14 14 14 14
Wind_Direction
64 65 72 79 82 92 101 105 111 114 112 110 109 111 112 107 98 102 109 108 111 111 99 100 94 86 85 86 81 74 83 88 95 111 117 121 118 116 123 124 115 107 113
62 61 67 77 85 88 99 103 108 110 116 115 115 113 109 100 99 101 108 107 107 107 103 94 89 88 81 71 64 69 78 84 82 97 110 121 115 118 127 123 124 111 125
64 66 73 79 86 90 96 103 106 107 118 117 115 112 103 93 92 100 101 105 107 103 104 94 90 85 81 66 58 67 76 69 68 83 95 105 105 110 121 127 139 135 133
69 71 76 76 80 87 94 97 100 102 112 117 116 112 104 93 91 93 97 102 104 105 105 101 97 84 75 61 61 67 68 60 67 76 84 93 99 114 117 129 128 132 131
76 76 75 72 76 85 91 94 100 102 108 114 115 112 102 97 96 95 93 93 102 106 107 102 92 74 63 54 50 50 57 66 76 74 73 87 100 110 116 133 133 102 109
78 77 78 75 77 82 88 96 104 107 109 107 104 107 104 98 91 86 87 86 84 87 84 75 64 55 51 42 45 49 59 62 70 75 70 76 86 102 124 130 131 125 137
77 77 81 79 78 86 92 102 105 108 109 104 96 93 94 98 92 84 83 81 79 78 72 59 50 46 38 35 40 48 63 65 67 67 54 44 59 80 127 158 154 157 151
76 79 81 83 80 87 94 99 105 106 108 107 102 94 91 92 83 74 77 80 76 73 63 51 43 40 39 33 43 60 68 71 67 61 49 42 53 63 79 143 140 172 176
78 83 83 84 86 88 93 101 104 104 104 105 100 93 86 80 75 72 71 65 63 57 55 47 38 33 29 35 53 62 64 63 59 46 44 31 34 51 72 102 126 150 222
80 84 87 88 89 91 94 99 99 98 94 96 97 88 80 82 78 73 67 56 55 54 54 51 38 34 38 48 47 49 60 50 43 29 23 24 38 53 55 348 276 293 279
80 84 87 85 89 93 97 97 98 100 93 98 96 85 77 72 72 67 55 52 49 52 52 46 36 32 37 36 32 35 35 39 26 8 3 7 14 10 334 318 295 308 294
78 79 81 86 89 88 94 96 98 97 97 97 99 94 83 72 70 61 50 48 45 44 40 26 19 27 26 25 26 26 32 27 16 4 358 353 345 330 317 320 300 308 294
72 75 77 82 85 84 87 91 96 95 98 105 107 98 90 77 75 67 53 48 37 35 32 23 20 18 18 16 19 25 20 10 0 355 344 334 329 322 319 327 318 313 294
71 79 76 80 85 81 82 81 79 79 81 91 103 98 91 73 59 61 41 18 15 18 20 16 11 2 2 354 1 3 359 357 346 343 333 327 321 311 318 313 313 316 308
72 79 86 86 86 85 84 81 73 74 85 82 80 74 63 58 53 62 45 19 360 356 355 354 353 346 337 337 340 344 346 333 329 330 325 323 320 312 306 311 303 299 306
63 68 69 78 85 84 76 70 60 69 69 62 63 55 52 44 37 40 25 21 2 2 352 340 337 333 328 319 318 325 325 322 317 311 309 317 319 315 310 303 298 291 298
63 67 71 72 77 75 69 67 60 58 51 46 53 43 42 30 21 17 21 17 9 358 346 337 337 333 327 322 314 314 317 315 309 305 299 304 308 306 301 297 297 297 299
62 63 63 63 66 63 60 52 43 40 39 42 53 42 29 20 12 13 9 11 4 353 346 339 338 334 330 325 316 309 307 306 301 302 299 298 300 298 298 296 294 298 298
58 57 55 54 55 56 53 47 44 43 42 49 54 42 23 16 15 14 1 344 350 346 338 332 329 330 329 323 317 313 312 312 306 303 295 292 294 295 296 295 294 296 295
56 55 52 48 49 53 54 50 48 45 46 52 55 45 19 7 13 13 356 345 339 339 337 340 334 331 328 329 323 317 314 312 307 305 302 294 295 294 293 291 289 288 292
48 47 45 47 48 51 49 45 41 39 42 42 39 36 27 22 25 18 4 355 351 343 334 331 332 335 331 327 324 319 313 313 312 308 304 302 297 295 293 293 289 290 289
52 51 48 48 46 46 44 41 37 30 35 33 40 36 31 26 14 6 356 350 349 339 332 328 325 324 322 322 323 323 320 319 318 316 304 302 300 299 299 297 296 296 292
49 49 42 34 32 33 38 37 32 31 27 27 30 20 15 5 353 349 342 340 339 332 326 325 327 326 323 322 321 318 318 318 319 317 311 308 305 302 301 298 297 300 295
33 29 29 20 19 23 24 19 24 25 18 18 15 3 358 352 343 343 341 337 337 330 321 321 321 322 321 318 317 316 314 314 318 316 312 312 311 308 306 303 302 302 295
20 13 11 9 10 11 7 5 10 12 8 6 3 354 345 338 335 333 329 327 328 327 321 318 317 317 319 319 316 313 311 311 312 311 308 306 306 307 307 305 303 301 293
15 12 2 358 358 355 356 356 360 359 350 345 341 334 328 325 322 318 315 315 317 317 317 317 316 315 314 313 313 312 310 308 308 308 307 304 301 302 303 302 300 299 296
Height
5892 5891 5891 5892 5892 5892 5892 5892 5893 5894 5894 5895 5895 5895 5895 5896 5896 5896 5896 5896 5896 5896 5896 5896 5896 5896 5895 5895 5895 5895 5894 5894 5893 5893 5893 5893 5893 5893 5893 5892 5892 5892 5891
5893 5893 5893 5893 5893 5893 5893 5894 5894 5895 5895 5896 5896 5896 5896 5897 5897 5897 5897 5897 5897 5897 5897 5897 5897 5897 5897 5896 5896 5895 5895 5894 5894 5894 5894 5894 5893 5893 5893 5893 5892 5892 5891
5895 5894 5894 5894 5894 5894 5894 5895 5895 5896 5896 5897 5897 5898 5898 5898 5898 5898 5898 5897 5898 5898 5898 5898 5898 5898 5897 5897 5897 5896 5896 5895 5895 5894 5894 5894 5894 5893 5893 5893 5892 5892 5892
5896 5896 5895 5896 5896 5896 5896 5896 5896 5897 5897 5898 5899 5899 5899 5899 5899 5899 5899 5899 5899 5898 5898 5899 5899 5898 5898 5898 5898 5897 5896 5896 5895 5895 5895 5894 5894 5894 5893 5893 5892 5892 5892
5897 5897 5897 5897 5897 5897 5897 5897 5897 5898 5898 5899 5900 5900 5900 5900 5900 5899 5900 5900 5900 5899 5900 5900 5900 5899 5899 5898 5898 5897 5897 5896 5896 5895 5895 5894 5894 5894 5893 5893 5892 5892 5891
5899 5899 5899 5898 5898 5898 5898 5898 5899 5899 5900 5900 5901 5901 5901 5901 5901 5901 5901 5901 5901 5901 5901 5901 5900 5900 5899 5899 5898 5898 5897 5897 5896 5896 5895 5895 5894 5893 5893 5892 5892 5891 5891
5900 5900 5900 5900 5900 5899 5899 5900 5900 5900 5901 5901 5902 5902 5902 5902 5902 5902 5902 5902 5902 5902 5902 5902 5901 5901 5900 5899 5899 5898 5898 5897 5896 5896 5895 5894 5894 5893 5893 5892 5891 5891 5891
5902 5902 5902 5901 5901 5901 5900 5901 5902 5902 5902 5903 5903 5903 5903 5903 5903 5903 5903 5903 5903 5903 5902 5902 5902 5901 5901 5900 5899 5898 5898 5897 5897 5896 5895 5894 5894 5893 5892 5892 5891 5891 5890
5903 5903 5903 5903 5902 5902 5902 5902 5903 5903 5904 5904 5904 5904 5904 5904 5904 5904 5904 5904 5904 5903 5903 5903 5902 5902 5901 5901 5900 5899 5898 5897 5897 5896 5895 5894 5893 5893 5892 5891 5891 5890 5890
5904 5904 5904 5904 5904 5904 5903 5903 5904 5904 5904 5905 5905 5905 5905 5905 5905 5905 5905 5905 5904 5904 5904 5903 5903 5902 5902 5901 5900 5899 5898 5898 5897 5896 5895 5894 5893 5892 5892 5891 5890 5890 5889
5905 5905 5905 5905 5905 5905 5905 5905 5905 5905 5905 5905 5906 5906 5906 5905 5905 5906 5905 5905 5905 5905 5904 5904 5903 5903 5902 5901 5900 5899 5898 5898 5897 5896 5895 5894 5893 5892 5891 5891 5890 5889 5888
5906 5906 5906 5905 5906 5905 5905 5906 5906 5906 5906 5906 5907 5907 5906 5906 5906 5906 5906 5906 5906 5905 5905 5904 5904 5903 5902 5901 5900 5899 5898 5897 5897 5896 5895 5894 5893 5892 5891 5890 5889 5888 5887
5907 5907 5906 5906 5906 5906 5907 5906 5906 5906 5906 5907 5907 5907 5907 5907 5907 5907 5906 5906 5906 5905 5905 5904 5904 5903 5902 5901 5900 5899 5898 5897 5896 5896 5895 5894 5892 5891 5890 5889 5888 5887 5886
5908 5908 5908 5907 5907 5907 5908 5908 5907 5907 5907 5907 5907 5907 5907 5907 5907 5907 5907 5906 5906 5905 5905 5904 5904 5903 5902 5901 5899 5898 5898 5897 5896 5895 5894 5893 5892 5891 5890 5888 5887 5887 5886
5909 5909 5909 5908 5908 5908 5908 5908 5908 5907 5907 5907 5908 5908 5907 5907 5907 5907 5907 5906 5906 5905 5904 5904 5903 5902 5901 5899 5899 5898 5897 5896 5895 5894 5893 5892 5891 5890 5889 5887 5886 5886 5885
5909 5909 5909 5909 5908 5909 5909 5908 5908 5908 5908 5908 5908 5908 5907 5907 5907 5906 5906 5906 5905 5905 5904 5903 5902 5901 5900 5898 5898 5897 5897 5896 5894 5893 5892 5891 5890 5888 5887 5886 5885 5884 5883
5911 5910 5910 5910 5909 5909 5909 5909 5909 5908 5908 5908 5908 5907 5907 5906 5906 5906 5905 5905 5904 5904 5903 5902 5902 5900 5899 5898 5897 5896 5895 5894 5893 5892 5890 5889 5888 5887 5886 5885 5884 5882 5881
5912 5912 5912 5911 5911 5910 5910 5909 5909 5908 5908 5908 5908 5907 5906 5906 5906 5905 5905 5905 5904 5903 5902 5901 5900 5899 5898 5897 5896 5895 5893 5892 5891 5890 5889 5888 5886 5885 5884 5883 5882 5880 5879
5913 5913 5912 5912 5912 5911 5910 5910 5909 5909 5908 5908 5907 5907 5906 5905 5905 5905 5904 5904 5902 5902 5901 5900 5899 5898 5897 5896 5894 5893 5892 5890 5889 5888 5886 5885 5884 5883 5882 5881 5879 5878 5876
5914 5914 5913 5913 5912 5911 5911 5910 5910 5909 5908 5908 5907 5907 5906 5905 5904 5904 5903 5903 5902 5901 5900 5899 5897 5896 5895 5894 5892 5891 5890 5889 5887 5886 5884 5883 5881 5880 5879 5877 5876 5875 5874
5915 5914 5914 5913 5912 5911 5911 5910 5910 5909 5909 5908 5907 5907 5906 5905 5904 5903 5903 5902 5901 5900 5899 5897 5896 5895 5893 5892 5891 5890 5888 5886 5885 5883 5881 5880 5878 5877 5875 5874 5872 5872 5870
5915 5915 5915 5914 5913 5912 5911 5910 5910 5909 5909 5908 5907 5906 5905 5905 5904 5903 5902 5901 5899 5898 5897 5896 5895 5893 5892 5890 5889 5888 5886 5885 5882 5880 5878 5877 5875 5874 5872 5871 5869 5868 5867
5916 5916 5915 5914 5913 5912 5911 5910 5910 5909 5908 5908 5907 5906 5905 5904 5903 5902 5901 5900 5898 5897 5896 5894 5893 5891 5890 5888 5887 5885 5884 5882 5880 5878 5875 5874 5872 5870 5869 5867 5866 5864 5863
5917 5916 5915 5914 5913 5912 5911 5910 5910 5909 5908 5907 5906 5905 5904 5903 5902 5901 5900 5898 5897 5895 5894 5892 5891 5889 5887 5886 5884 5882 5881 5879 5877 5875 5873 5871 5869 5867 5866 5864 5862 5860 5859
5917 5916 5915 5914 5913 5912 5911 5910 5909 5908 5907 5906 5905 5904 5903 5902 5901 5900 5898 5897 5895 5893 5892 5890 5888 5887 5885 5883 5881 5879 5877 5875 5874 5872 5870 5868 5866 5864 5862 5861 5859 5857 5856
5917 5916 5915 5914 5913 5912 5911 5909 5908 5907 5906 5905 5904 5903 5902 5900 5899 5898 5897 5895 5893 5891 5890 5888 5886 5884 5882 5880 5878 5876 5874 5872 5870 5869 5867 5865 5863 5861 5860 5858 5856 5854 5852